[[{"header":{"parameterUnit":"m.s-1","parameterCategory":1,"la1":30.2991,"la2":30.254,"lo1":-89.0895,"lo2":-89.0444,"dy":0.0017,"dx":0.0017,"nx":28,"ny":28,"refTime":"2024-10-07T03:00:00:Z","depth":0,"parameterNumber":2,"parameterNumberName":"U-component_of_WINDS"},"data":[0,0,0,0,0,0,0,0,0,0,0,0,0,0,0,0,0,0,0,0,0,0,0,0,0,0,0,0,0,0,0,0,0,0,0,0,0,0,0,0,0,0,0,0,0,0,0,0,0,0,0,0,0,0,0,0,0,0,-1.433,-1.433,0,-1.4356,-1.4356,-1.4356,-1.4318,-1.4317,-1.4316,-1.4315,-1.4342,-1.4344,-1.4346,0,0,0,0,0,0,0,0,0,0,0,0,0,-1.4248,-1.425,-1.433,-1.433,-1.433,-1.4356,-1.4356,-1.4356,-1.4319,-1.4317,-1.4315,-1.4314,-1.4342,-1.4344,-1.4346,0,0,0,0,0,0,0,0,0,0,0,0,0,-1.428,-1.4251,-1.433,-1.4315,-1.4314,-1.4356,-1.4356,-1.4356,-1.4319,-1.4317,-1.4315,-1.4313,-1.4341,-1.4344,-1.4347,-1.4405,0,0,-1.4356,-1.4357,0,0,0,0,0,0,0,0,-1.4278,-1.4283,-1.4317,-1.4316,-1.4315,-1.4332,-1.4337,-1.4373,-1.432,-1.4317,-1.4314,-1.4312,-1.434,-1.4343,-1.4353,-1.4406,-1.4407,-1.4356,-1.4358,-1.4359,-1.436,0,0,0,0,0,0,0,-1.4276,-1.4282,-1.434,-1.4317,-1.4316,-1.4307,-1.4309,-1.4344,-1.434,-1.4317,-1.4314,-1.4318,-1.434,-1.435,-1.4353,-1.4408,-1.4356,-1.4358,-1.436,-1.4361,-1.4511,-1.4513,0,0,0,0,0,0,-1.4276,-1.428,-1.4339,-1.4341,-1.4291,-1.431,-1.4312,-1.4328,-1.4339,-1.4339,-1.432,-1.4316,-1.4346,-1.435,-1.4354,-1.4424,-1.4359,-1.4362,-1.4363,-1.4509,-1.4512,-1.4514,0,0,0,0,0,0,-1.4274,-1.4281,-1.4338,-1.431,-1.4316,-1.4313,-1.4332,-1.433,-1.434,-1.4341,-1.434,-1.4331,-1.4344,-1.435,-1.4393,-1.4424,-1.4363,-1.4366,-1.4506,-1.451,-1.4513,-1.4563,0,0,0,0,0,0,-1.4272,-1.4281,-1.4303,-1.4311,-1.4318,-1.4377,-1.4333,-1.4332,-1.4345,-1.4341,-1.4351,-1.4351,-1.4343,-1.4388,-1.4395,-1.4427,-1.4368,-1.4503,-1.4508,-1.4512,-1.4559,-1.4568,-1.4576,0,0,0,0,0,-1.4269,-1.4316,-1.4304,-1.4312,-1.4345,-1.4378,-1.4383,-1.4372,-1.4348,-1.437,-1.4371,-1.4351,-1.4419,-1.4393,-1.4401,-1.4434,-1.4501,-1.4507,-1.4511,-1.4555,-1.4566,-1.4575,0,0,0,0,0,0,-1.4313,-1.4317,-1.4304,-1.4355,-1.4367,-1.4372,-1.44,-1.4384,-1.4403,-1.4398,-1.4384,-1.4387,-1.4433,-1.4437,-1.4408,-1.4491,-1.4456,-1.4463,-1.4487,-1.4497,-1.4506,-1.4504,-1.4371,0,0,0,0,0,-1.4329,-1.4355,-1.4357,-1.4402,-1.4408,-1.4403,-1.4417,-1.4408,-1.4419,-1.4424,-1.4428,-1.444,-1.4464,-1.4481,-1.4503,-1.4558,-1.4561,-1.4585,-1.4593,-1.46,-1.4607,-1.4637,-1.4648,-1.453,-1.453,-1.453,0,0,-1.4361,-1.4367,-1.4384,-1.4411,-1.4419,-1.4446,-1.4407,-1.4438,-1.4459,-1.4429,-1.447,-1.4473,-1.4486,-1.4536,-1.4558,-1.4541,-1.4639,-1.4606,-1.4612,-1.4615,-1.4643,-1.4655,-1.4664,-1.4533,-1.4533,-1.4532,0,0,-1.4435,-1.4441,-1.448,-1.4488,-1.4501,-1.4497,-1.4506,-1.4514,-1.4515,-1.4555,-1.4533,-1.4558,-1.4599,-1.461,-1.462,-1.4698,-1.4681,-1.4705,-1.475,-1.478,-1.4789,-1.4797,-1.4826,-1.4836,-1.4711,-1.4711,-1.4711,0,-1.4475,-1.4515,-1.4502,-1.4534,-1.4547,-1.452,-1.4559,-1.4568,-1.4587,-1.4597,-1.4577,-1.4629,-1.4635,-1.4688,-1.4706,-1.4715,-1.4726,-1.4705,-1.4788,-1.4797,-1.4804,-1.4831,-1.4842,-1.4714,-1.4714,-1.4714,-1.4713,0,-1.4563,-1.4592,-1.4621,-1.4641,-1.4656,-1.4692,-1.4684,-1.4701,-1.469,-1.4689,-1.4731,-1.4737,-1.4761,-1.4772,-1.4762,-1.4823,-1.4812,-1.4791,-1.4756,-1.4819,-1.4844,-1.4854,-1.4719,-1.4718,-1.4717,-1.4716,0,0,-1.4667,-1.4678,-1.4689,-1.4698,-1.4709,-1.4731,-1.4765,-1.4788,-1.4803,-1.4817,-1.4846,-1.4882,-1.4862,-1.4874,-1.4864,-1.489,-1.4952,-1.4865,-1.4866,-1.4883,-1.5021,-1.5039,-1.5051,-1.494,-1.4942,-1.4943,-1.5021,0,-1.4742,-1.4802,-1.479,-1.4849,-1.4875,-1.485,-1.4879,-1.489,-1.4889,-1.4912,-1.491,-1.4936,-1.4907,-1.4915,-1.4939,-1.494,-1.498,-1.4934,-1.4968,-1.497,-1.4968,-1.5064,-1.5083,-1.5155,-1.503,-1.5032,-1.5033,0,-1.4838,-1.4855,-1.4916,-1.4923,-1.4934,-1.4961,-1.4981,-1.5003,-1.5014,-1.5011,-1.5025,-1.501,-1.5045,-1.5008,-1.5056,-1.5025,-1.5038,-1.504,-1.5042,-1.5047,-1.5007,-1.5073,-1.5178,-1.519,-1.5049,-1.5047,-1.5046,0,-1.491,-1.4948,-1.4989,-1.4997,-1.5006,-1.5026,-1.5031,-1.504,-1.5054,-1.5071,-1.508,-1.5101,-1.5113,-1.513,-1.5122,-1.5096,-1.5171,-1.5134,-1.5171,-1.5172,-1.519,-1.5189,-1.5301,-1.5196,-1.5196,-1.5195,-1.5195,0,-1.4995,-1.5034,-1.5022,-1.5048,-1.509,-1.5076,-1.5119,-1.512,-1.5129,-1.5155,-1.5133,-1.5158,-1.5144,-1.5168,-1.5161,-1.5203,-1.5208,-1.5208,-1.5206,-1.5211,-1.5211,-1.522,-1.5216,-1.5198,-1.5198,-1.5197,-1.5197,0,-1.5084,-1.5077,-1.512,-1.5125,-1.5127,-1.5159,-1.5163,-1.5187,-1.5184,-1.5217,-1.5224,-1.5219,-1.5246,-1.5239,-1.5268,-1.5264,-1.5316,-1.5307,-1.5313,-1.5311,-1.535,-1.5347,-1.5473,-1.5489,-1.5372,-1.5373,-1.5374,0,-1.514,-1.5169,-1.5177,-1.5192,-1.5199,-1.5224,-1.5238,-1.5225,-1.5241,-1.5256,-1.5279,-1.5303,-1.5323,-1.5367,-1.5367,-1.5389,-1.5381,-1.5424,-1.5385,-1.5389,-1.5384,-1.5383,-1.5386,-1.5432,-1.5434,-1.5435,-1.5436,0,-1.5241,-1.5236,-1.5257,-1.5278,-1.5295,-1.5311,-1.5324,-1.5338,-1.5326,-1.5345,-1.5372,-1.5387,-1.5417,-1.5442,-1.5463,-1.5468,-1.5451,-1.5448,-1.5458,-1.5464,-1.5467,-1.5467,-1.5336,-1.5445,-1.5444,-1.5444,-1.5443,-1.5443,-1.5316,-1.5341,-1.535,-1.5375,-1.5383,-1.5396,-1.5419,-1.5419,-1.5441,-1.5464,-1.5455,-1.5487,-1.5497,-1.5522,-1.553,-1.5554,-1.5538,-1.5553,-1.5557,-1.5561,-1.5566,-1.5461,-1.5558,-1.5557,-1.5557,-1.5557,-1.5557,0,-1.5417,-1.5421,-1.5444,-1.5464,-1.5483,-1.5464,-1.5477,-1.5495,-1.5523,-1.5534,-1.5553,-1.5585,-1.5609,-1.561,-1.5633,-1.5653,-1.5645,-1.5659,-1.5659,-1.566,-1.5579,-1.5568,-1.5665,-1.5665,-1.5665,-1.5665,-1.5665,-1.5665,-1.5472,-1.5514,-1.551,-1.5555,-1.5559,-1.559,-1.56,-1.5612,-1.562,-1.5656,-1.5676,-1.5676,-1.5683,-1.5706,-1.5728,-1.5728,-1.5738,-1.5755,-1.5752,-1.5677,-1.5666,-1.5656,-1.5646,-1.5757,-1.5757,-1.5832,-1.5833,-1.5833]},{"header":{"parameterUnit":"m.s-1","parameterCategory":1,"la1":30.2991,"la2":30.254,"lo1":-89.0895,"lo2":-89.0444,"dy":0.0017,"dx":0.0017,"nx":28,"ny":28,"refTime":"2024-10-07T03:00:00:Z","depth":0,"parameterNumber":3,"parameterNumberName":"V-component_of_WINDS"},"data":[0,0,0,0,0,0,0,0,0,0,0,0,0,0,0,0,0,0,0,0,0,0,0,0,0,0,0,0,0,0,0,0,0,0,0,0,0,0,0,0,0,0,0,0,0,0,0,0,0,0,0,0,0,0,0,0,0,0,-5.1869,-5.1869,0,-5.1916,-5.1916,-5.1917,-5.1862,-5.186,-5.1858,-5.1856,-5.19,-5.1903,-5.1906,0,0,0,0,0,0,0,0,0,0,0,0,0,-5.1727,-5.173,-5.1869,-5.1869,-5.187,-5.1916,-5.1916,-5.1917,-5.1863,-5.186,-5.1858,-5.1855,-5.1899,-5.1902,-5.1906,0,0,0,0,0,0,0,0,0,0,0,0,0,-5.1783,-5.1731,-5.1868,-5.1848,-5.1847,-5.1916,-5.1916,-5.1917,-5.1863,-5.186,-5.1857,-5.1854,-5.1898,-5.1902,-5.1907,-5.1996,0,0,-5.1921,-5.1923,0,0,0,0,0,0,0,0,-5.178,-5.1788,-5.1851,-5.185,-5.1848,-5.188,-5.1882,-5.1943,-5.1864,-5.1857,-5.1856,-5.1853,-5.1895,-5.19,-5.1915,-5.1998,-5.2,-5.1921,-5.1924,-5.1926,-5.1927,0,0,0,0,0,0,0,-5.1776,-5.1786,-5.1887,-5.1852,-5.185,-5.1835,-5.184,-5.1894,-5.1892,-5.1857,-5.1853,-5.186,-5.1894,-5.1911,-5.1916,-5.2,-5.1921,-5.1925,-5.1928,-5.1929,-5.2159,-5.2162,0,0,0,0,0,0,-5.1775,-5.1783,-5.1885,-5.1888,-5.1806,-5.184,-5.1846,-5.1873,-5.1892,-5.1892,-5.1862,-5.1857,-5.1905,-5.1911,-5.1917,-5.2024,-5.1926,-5.193,-5.1933,-5.2156,-5.216,-5.2163,0,0,0,0,0,0,-5.1772,-5.1785,-5.1884,-5.1835,-5.1846,-5.1846,-5.1877,-5.1875,-5.1892,-5.1896,-5.1895,-5.188,-5.1903,-5.1911,-5.1977,-5.2024,-5.1932,-5.1936,-5.2152,-5.2157,-5.2161,-5.2237,0,0,0,0,0,0,-5.1768,-5.1784,-5.1819,-5.1836,-5.1849,-5.1944,-5.188,-5.1879,-5.1901,-5.1895,-5.1912,-5.1912,-5.1901,-5.1971,-5.1982,-5.2029,-5.194,-5.2147,-5.2154,-5.216,-5.223,-5.2244,-5.2256,0,0,0,0,0,-5.1763,-5.1837,-5.1821,-5.1834,-5.1893,-5.1947,-5.1954,-5.1941,-5.1905,-5.1939,-5.1942,-5.1912,-5.2017,-5.1978,-5.199,-5.2039,-5.2144,-5.2152,-5.2159,-5.2224,-5.2241,-5.2255,0,0,0,0,0,0,-5.1824,-5.1839,-5.1821,-5.1903,-5.1924,-5.1938,-5.1981,-5.1959,-5.199,-5.1982,-5.1963,-5.1967,-5.2038,-5.2045,-5.2001,-5.2127,-5.2075,-5.2085,-5.212,-5.2136,-5.2148,-5.2145,-5.1944,0,0,0,0,0,-5.1847,-5.1891,-5.1901,-5.1972,-5.1984,-5.1981,-5.2004,-5.1992,-5.2013,-5.2021,-5.2028,-5.2048,-5.2086,-5.2111,-5.2146,-5.2231,-5.2234,-5.227,-5.2283,-5.2294,-5.2303,-5.2349,-5.2365,-5.2188,-5.2188,-5.2188,0,0,-5.1894,-5.1908,-5.1937,-5.1985,-5.2,-5.2045,-5.1989,-5.2039,-5.2072,-5.2028,-5.2092,-5.2098,-5.2119,-5.2195,-5.2229,-5.2203,-5.2353,-5.2303,-5.2312,-5.2315,-5.2358,-5.2375,-5.239,-5.2193,-5.2192,-5.2191,0,0,-5.2004,-5.2019,-5.208,-5.2097,-5.2122,-5.212,-5.2134,-5.2152,-5.2154,-5.2219,-5.2187,-5.2225,-5.229,-5.2307,-5.2324,-5.2441,-5.2415,-5.2453,-5.2519,-5.2564,-5.2578,-5.2591,-5.2633,-5.2649,-5.2462,-5.2462,-5.2462,0,-5.2059,-5.2128,-5.2114,-5.2167,-5.2189,-5.2153,-5.2215,-5.2231,-5.2265,-5.2281,-5.2251,-5.2333,-5.2345,-5.2425,-5.2454,-5.2468,-5.2484,-5.2451,-5.2578,-5.259,-5.2601,-5.2641,-5.2657,-5.2467,-5.2466,-5.2466,-5.2465,0,-5.2195,-5.2243,-5.2289,-5.2326,-5.2353,-5.2409,-5.2403,-5.2432,-5.2417,-5.2418,-5.2483,-5.2496,-5.2533,-5.2551,-5.2537,-5.263,-5.2613,-5.2581,-5.2528,-5.2623,-5.266,-5.2676,-5.2473,-5.2472,-5.247,-5.2469,0,0,-5.2344,-5.2373,-5.239,-5.2407,-5.2432,-5.2468,-5.2522,-5.2561,-5.2586,-5.261,-5.2656,-5.2712,-5.2684,-5.2703,-5.269,-5.273,-5.2822,-5.2693,-5.2693,-5.2717,-5.2926,-5.295,-5.2968,-5.2805,-5.2808,-5.281,-5.2924,0,-5.2455,-5.2553,-5.2542,-5.2634,-5.2679,-5.2646,-5.2693,-5.2713,-5.2715,-5.2751,-5.2752,-5.2793,-5.2752,-5.2764,-5.2801,-5.2803,-5.2864,-5.2795,-5.2846,-5.2848,-5.2843,-5.2988,-5.3014,-5.3121,-5.2939,-5.2941,-5.2943,0,-5.2598,-5.263,-5.2728,-5.2747,-5.2765,-5.2808,-5.2843,-5.2879,-5.29,-5.2898,-5.2921,-5.2901,-5.2955,-5.2902,-5.2975,-5.2929,-5.2949,-5.2953,-5.2957,-5.2962,-5.2902,-5.2997,-5.3154,-5.3171,-5.2966,-5.2964,-5.2962,0,-5.2698,-5.2765,-5.2833,-5.2847,-5.2871,-5.2903,-5.2914,-5.2932,-5.2956,-5.2986,-5.3001,-5.3036,-5.3055,-5.3082,-5.3072,-5.3033,-5.3148,-5.3093,-5.3148,-5.3148,-5.3174,-5.3172,-5.3338,-5.3186,-5.3186,-5.3185,-5.3185,0,-5.2823,-5.2885,-5.2878,-5.292,-5.2987,-5.2973,-5.304,-5.3046,-5.3063,-5.3105,-5.3077,-5.3116,-5.31,-5.3138,-5.313,-5.3193,-5.3201,-5.3201,-5.3199,-5.3204,-5.3205,-5.3218,-5.321,-5.319,-5.3189,-5.3188,-5.3187,0,-5.2947,-5.2945,-5.3016,-5.3034,-5.3039,-5.3088,-5.3102,-5.3141,-5.3141,-5.3193,-5.3205,-5.3204,-5.3247,-5.324,-5.3287,-5.3282,-5.336,-5.3348,-5.3354,-5.3351,-5.3407,-5.3402,-5.3587,-5.361,-5.3443,-5.3444,-5.3446,0,-5.3027,-5.3074,-5.3097,-5.3124,-5.3138,-5.3181,-5.3206,-5.3194,-5.3221,-5.3249,-5.3284,-5.3325,-5.3357,-5.3427,-5.343,-5.3466,-5.3455,-5.3517,-5.346,-5.3465,-5.3457,-5.3455,-5.3459,-5.3529,-5.353,-5.3532,-5.3533,0,-5.3171,-5.3168,-5.3206,-5.3245,-5.3276,-5.3305,-5.3331,-5.3353,-5.3344,-5.3375,-5.342,-5.3445,-5.3494,-5.3535,-5.3569,-5.3578,-5.3555,-5.3551,-5.3566,-5.3573,-5.3575,-5.3575,-5.3386,-5.3547,-5.3546,-5.3545,-5.3544,-5.3543,-5.3276,-5.3316,-5.334,-5.3383,-5.3402,-5.3427,-5.3464,-5.347,-5.3508,-5.3548,-5.3538,-5.3589,-5.3609,-5.3652,-5.3665,-5.3704,-5.3681,-5.3702,-5.3707,-5.3713,-5.372,-5.3568,-5.371,-5.3709,-5.3709,-5.3709,-5.3708,0,-5.3419,-5.3433,-5.3473,-5.3511,-5.3545,-5.3522,-5.3549,-5.3579,-5.3625,-5.3646,-5.3679,-5.3731,-5.377,-5.3777,-5.3814,-5.3844,-5.3834,-5.3854,-5.3852,-5.3855,-5.3738,-5.3722,-5.3862,-5.3862,-5.3862,-5.3862,-5.3862,-5.3862,-5.3498,-5.3565,-5.3565,-5.3641,-5.3653,-5.3705,-5.3723,-5.3746,-5.3763,-5.3823,-5.3856,-5.3861,-5.3876,-5.3915,-5.395,-5.3951,-5.3966,-5.3991,-5.3987,-5.3878,-5.3863,-5.3848,-5.3833,-5.3994,-5.3994,-5.4101,-5.4102,-5.4103]}]]